Regional Weather Roundup
Issued by NWS

Home | Current Version | Previous Version | Text Only | Print | Product List | Glossary Off
Versions: 1 2 3 4 5 6 7 8 9 10 11 12 13 14 15 16 17 18 19 20 21 22 23 24 25 26 27 28 29 30 31 32 33 34 35 36 37 38 39 40 41 42 43 44 45 46 47 48 49 50

410
ASUS44 KLIX 211710
RWRLA
LOUISIANA WEATHER ROUNDUP
NATIONAL WEATHER SERVICE NEW ORLEANS LA
1100 AM CST SUN DEC 21 2014

NOTE: "FAIR" INDICATES FEW OR NO CLOUDS BELOW 12,000 FEET WITH NO
      SIGNIFICANT WEATHER AND/OR OBSTRUCTIONS TO VISIBILITY.
      SKY/WX - SKY CONDITION AND SIGNIFICANT WEATHER.
      TMP - AIR TEMPERATURE.    DP   - DEWPOINT TEMPERATURE.
      RH  - RELATIVE HUMIDITY.  PRES - PRESSURE.
      HX  - HEAT INDEX.         WCI  - WIND CHILL INDEX.

*  THESE STATIONS ARE NOT NWS OR FAA STATIONS AND ARE NOT UNDER
   NWS QUALITY CONTROL.

LAZ040-048-061>063-065-066-069-211800-
SOUTHEAST LOUISIANA

CITY           SKY/WX    TMP DP  RH WIND       PRES   REMARKS
N.O. AUDUBON     N/A     56  53  89 MISG        N/A
N.O. INTL ARPT CLOUDY    56  49  77 CALM      30.12S
N.O. LAKEFRONT CLOUDY    56  49  77 E3        30.12F
N.O. DOWNTOWN* CLOUDY    55  46  71 E5        30.12S
SLIDELL        CLOUDY    57  49  74 CALM      30.11S
BATON ROUGE    CLOUDY    55  46  71 VRB3      30.13S
BOOTHVILLE     CLOUDY    58  54  86 NE6       30.11S
BELLE CHASSE   CLOUDY    57  51  80 SE5       30.10F
BOGALUSA*        N/A     55  47  73 CALM      30.13F
GALLIANO*      CLOUDY    57  52  84 MISG      30.12R
NEW ROADS*     CLOUDY    50  47  89 CALM      30.14F
GONZALES*      CLOUDY    55  52  88 CALM      30.12S
HAMMOND*       NOT AVBL
HOUMA*         CLOUDY    55  52  88 N3        30.12S FOG
PORT FOURCHON* NOT AVBL

$$

LAZ041-044-053-054-211800-
SOUTHWEST LOUISIANA

CITY           SKY/WX    TMP DP  RH WIND       PRES   REMARKS
LAKE CHARLES   FOG       47  47 100 CALM      30.12F VSB 3/4
LAFAYETTE      CLOUDY    50  48  93 CALM      30.13F FOG
PATTERSON      CLOUDY    54  48  82 N3        30.14R
SALT POINT       N/A     57  51  80 VRB3      30.11F
NEW IBERIA     CLOUDY    52  49  89 NE3       30.14S FOG
CHENAULT AIRPK FOG       46  46 100 N3        30.12F VSB 3/4

$$

LAZ027-028-211800-
CENTRAL LOUISIANA

CITY           SKY/WX    TMP DP  RH WIND       PRES   REMARKS
FORT POLK      SUNNY     53  47  78 VRB3      30.11F
ALEXANDRIA INT SUNNY     53  46  77 VRB7      30.11F
ALEXANDRIA     CLOUDY    51  46  83 VRB6      30.12F

$$

LAZ001-002-211800-
NORTHWEST LOUISIANA

CITY           SKY/WX    TMP DP  RH WIND       PRES   REMARKS
SHREVEPORT     PTSUNNY   50  44  80 SE5       30.13F
BARKSDALE AFB  NOT AVBL
DTN SHREVEPORT PTSUNNY   48  41  76 SE6       30.14F

$$

LAZ014-016-211800-
NORTHEAST LOUISIANA

CITY           SKY/WX    TMP DP  RH WIND       PRES   REMARKS
MONROE         SUNNY     52  41  66 E7        30.15F
TALLULAH       SUNNY     53  43  68 SE3       30.15F

$$




USA.gov is the U.S. government's official web portal to all federal, state and local government web resources and services.